Lid_Strength_Index
7 7 7 7 7 7 7 7 8 9 8 7 7 5 5 5 6 7 7 7 7 6 6 6 5 5 5 5 5 4 4 4 4 4 3 2 2 2
7 7 7 7 7 7 7 7 7 8 9 7 6 6 5 6 6 7 7 9 7 7 6 6 5 5 5 5 5 5 5 5 5 4 4 3 2 2
7 8 8 8 8 8 7 7 8 8 9 8 7 6 6 6 7 7 7 7 7 8 7 6 6 5 5 5 6 6 5 5 4 4 4 3 3 3
8 8 8 8 8 8 8 8 8 8 8 9 8 8 8 7 7 7 8 8 7 7 8 7 6 5 6 6 6 6 7 7 7 7 6 5 4 4
8 8 8 8 9 8 8 9 8 9 8 9 9 8 9 8 8 8 8 8 7 8 8 8 7 7 6 6 6 7 7 7 7 6 6 6 6 5
8 8 8 8 8 8 8 8 9 9 9 9 10 9 9 9 9 10 10 8 8 8 8 7 7 8 8 7 7 7 8 8 8 7 7 7 6 5
8 8 8 8 8 7 9 9 9 9 9 10 10 10 10 10 10 10 10 10 9 9 8 7 7 8 7 8 8 8 8 8 7 7 7 7 7 7
9 8 8 8 8 8 8 8 8 9 9 9 9 10 9 9 9 10 10 11 12 9 9 9 8 9 8 8 8 8 8 8 7 7 7 7 6 6
8 8 8 8 8 8 7 7 7 7 7 8 9 9 9 8 8 9 9 10 11 9 9 11 9 10 9 9 9 9 9 8 8 8 7 7 6 7
8 7 8 7 7 7 8 8 8 8 7 6 6 7 7 7 7 8 8 8 8 9 9 11 9 10 9 8 8 8 8 8 8 7 7 7 7 7
8 8 8 8 7 7 8 8 8 8 7 7 6 6 5 5 6 7 9 10 10 9 8 9 9 9 9 9 8 9 8 7 8 9 9 9 8 8
7 7 6 7 6 6 7 8 8 8 7 7 7 7 6 6 5 6 7 9 9 10 7 9 9 9 10 8 8 8 6 6 7 8 8 8 8 8
7 7 6 6 6 6 5 5 6 5 5 6 6 6 6 6 5 4 4 5 7 7 6 7 8 8 9 9 8 7 6 7 7 7 7 7 7 7
6 5 4 4 4 4 4 4 3 2 3 5 5 5 5 5 5 5 5 4 4 5 5 6 9 7 8 9 9 7 6 6 6 7 7 6 6 6
5 3 3 3 4 3 3 3 3 3 3 4 4 5 5 4 5 6 6 6 8 6 6 6 7 7 7 9 9 8 7 6 5 5 6 6 6 6
4 4 4 3 3 3 3 3 3 4 5 5 5 5 5 6 7 5 7 7 8 7 7 7 8 8 9 8 9 9 8 8 6 5 5 5 5 5
2 2 3 3 4 3 3 3 3 3 4 4 5 5 6 6 6 6 7 7 8 7 8 7 6 7 7 8 9 8 8 8 6 7 7 7 6 5
3 4 4 4 4 3 4 4 3 3 4 4 4 5 6 6 6 7 7 7 8 7 7 6 7 7 8 7 6 8 8 7 6 6 7 8 8 5
4 4 4 4 3 3 3 3 3 2 3 3 4 4 5 5 6 6 7 7 7 7 6 6 7 7 9 10 6 5 7 6 6 7 6 7 8 7
3 4 4 4 3 3 3 3 2 2 3 3 4 4 5 5 6 6 6 7 7 8 8 8 8 7 8 9 8 6 5 6 7 7 7 6 5 4
4 4 3 3 3 3 3 2 3 3 3 4 4 4 5 5 5 6 6 7 7 7 9 8 7 6 6 6 9 8 6 5 5 6 5 5 5 5
4 4 3 3 3 3 3 3 3 3 3 3 4 4 4 5 5 6 6 7 7 7 7 6 5 5 6 7 8 7 6 3 2 2 3 4 5 7
4 3 3 3 3 3 3 4 4 4 3 3 4 4 4 5 5 5 5 6 6 7 7 6 5 5 5 5 6 6 5 5 4 5 4 2 2 3